Rome, OR

9:56 PM MDT on March 22, 2017 (GMT -0600)
Rome State

Weather History for KREO - February, 2014

Change the Weather History Date:

Friday, February 21, 2014

  Actual Average Record
Temperature  
Mean Temperature 38 °F 35 °F  
Max Temperature 51 °F 47 °F 63 °F (1991)
Min Temperature 24 °F 23 °F 14 °F (1955)
Degree Days  
Heating Degree Days 27 30  
Month to date heating degree days 583 679  
Since 1 July heating degree days 4273 4528  
Cooling Degree Days 0 0  
Month to date cooling degree days 0 0  
Year to date cooling degree days 0 0  
Moisture  
Dew Point 20 °F    
Average Humidity 55    
Maximum Humidity 88    
Minimum Humidity 22    
Precipitation  
Precipitation 0.00 in 0.02 in 0.72 in (1948)
Month to date precipitation 0.60 0.55  
Year to date precipitation 0.73 1.20  
Sea Level Pressure  
Sea Level Pressure 30.14 in    
Wind  
Wind Speed 7 mph (South)    
Max Wind Speed 14 mph    
Max Gust Speed 19 mph    
T = Trace of Precipitation, MM = Missing Value Source: NWS Daily Summary

Daily Weather History Graph

Daily Weather History Graph

Search for Another Location

Airport or City:

Trip Planner

Search our weather history database for the weather conditions in past years. The results will help you decide how hot, cold, wet, or windy it might be!

Date:

Astronomy

Feb. 21, 2014 Rise Set
Actual Time 6:39 AM PST 5:31 PM PST
Civil Twilight 6:10 AM PST 6:00 PM PST
Nautical Twilight 5:38 AM PST 6:32 PM PST
Astronomical Twilight 5:05 AM PST 7:05 PM PST
Moon No Moon Rise 9:58 AM PST (2/21)
Length of Visible Light 11h 49m
Length of Day
10h 51m
Waning Gibbous, 59% of the Moon is Illuminated
Feb 21
Waning Gibbous
Feb 22
Last Quarter
Mar 1
New
Mar 8
First Quarter
Mar 16
Full

Hourly Weather History & Observations

Time (PST) Temp. Windchill Dew Point Humidity Pressure Visibility Wind Dir Wind Speed Gust Speed Precip Events Conditions
12:52 AM 33.1 °F 26.1 °F 26.1 °F 75% 30.19 in - South 8.1 mph - N/A   Unknown
1:52 AM 30.0 °F 23.2 °F 25.0 °F 82% 30.19 in - SSE 6.9 mph - N/A   Unknown
2:52 AM 30.0 °F 21.7 °F 24.1 °F 79% 30.20 in - SSE 9.2 mph - N/A   Unknown
3:52 AM 27.0 °F 18.0 °F 21.9 °F 81% 30.21 in - SSE 9.2 mph - N/A   Unknown
4:52 AM 26.1 °F 17.6 °F 21.9 °F 84% 30.21 in - SSE 8.1 mph - N/A   Unknown
5:52 AM 25.0 °F 15.5 °F 21.0 °F 85% 30.20 in - SE 9.2 mph - N/A   Unknown
6:52 AM 27.0 °F - 21.9 °F 81% 30.21 in - Calm Calm - N/A   Unknown
7:52 AM 30.0 °F - 24.1 °F 79% 30.22 in - Calm Calm - N/A   Unknown
8:52 AM 36.0 °F 30.3 °F 26.1 °F 67% 30.21 in - South 6.9 mph - N/A   Unknown
9:52 AM 43.0 °F 36.4 °F 25.0 °F 49% 30.17 in - SW 12.7 mph - N/A   Unknown
10:52 AM 44.1 °F 38.6 °F 25.0 °F 47% 30.17 in - SSW 10.4 mph 18.4 mph N/A   Unknown
11:52 AM 46.9 °F - 23.0 °F 39% 30.15 in - Variable 4.6 mph - N/A   Unknown
12:52 PM 48.9 °F - 19.9 °F 32% 30.12 in - Variable 5.8 mph 17.3 mph N/A   Unknown
1:52 PM 50.0 °F - 16.0 °F 26% 30.09 in - SSW 9.2 mph - N/A   Unknown
2:52 PM 50.0 °F - 15.1 °F 25% 30.08 in - SSW 9.2 mph - N/A   Unknown
3:52 PM 51.1 °F - 14.0 °F 23% 30.07 in - Variable 5.8 mph - N/A   Unknown
4:52 PM 48.9 °F - 12.9 °F 24% 30.07 in - NW 6.9 mph - N/A   Unknown
5:52 PM 43.0 °F - 14.0 °F 31% 30.09 in - Calm Calm - N/A   Unknown
6:52 PM 34.0 °F 31.0 °F 17.1 °F 50% 30.10 in - SW 3.5 mph - N/A   Unknown
7:52 PM 30.0 °F 22.4 °F 18.0 °F 61% 30.11 in - South 8.1 mph - N/A   Unknown
8:52 PM 30.9 °F 22.8 °F 19.0 °F 61% 30.09 in - South 9.2 mph - N/A   Unknown
9:52 PM 30.0 °F 22.4 °F 19.0 °F 64% 30.06 in - South 8.1 mph - N/A   Unknown
10:52 PM 26.1 °F - 18.0 °F 71% 30.08 in - Calm Calm - N/A   Unknown
11:52 PM 28.9 °F 23.9 °F 19.9 °F 69% 30.06 in - SSE 4.6 mph - N/A   Unknown